Location: Saint Peter Port
(49.4500°N, 2.5330°W)
Time: 11:34:25
(UTC+01:00)

Cosmos 2242 Rocket - Visible Passes

Search period start: 24 June 2017 00:00
Search period end: 04 July 2017 00:00
Orbit: 620 x 651 km, 82.5° (Epoch: 23 June)

Date Brightness Start Highest point End Pass type
(mag) Time Alt. Az. Time Alt. Az. Time Alt. Az.
24 Jun 3.7 00:48:12 10° NNW 00:52:47 70° W 00:54:51 32° S visible
24 Jun 5.0 23:32:52 10° N 23:36:51 28° ENE 23:39:39 16° ESE visible
25 Jun 4.6 01:10:55 10° NNW 01:15:08 36° W 01:17:08 24° SW visible
25 Jun 4.1 23:55:01 10° N 23:59:30 51° ENE 00:01:58 25° SE visible
26 Jun 5.5 01:34:01 10° NW 01:37:20 20° W 01:39:27 15° WSW visible
26 Jun 5.9 22:40:44 10° NNE 22:43:08 14° ENE 22:45:33 10° E visible
27 Jun 3.6 00:17:24 10° NNW 00:22:01 83° W 00:24:17 30° S visible
27 Jun 6.1 01:58:32 10° WNW 01:59:24 10° W 02:00:16 10° W visible
27 Jun 5.2 23:02:13 10° NNE 23:06:00 24° ENE 23:09:08 13° ESE visible
28 Jun 4.4 00:40:03 10° NNW 00:44:24 43° W 00:46:37 25° SSW visible
28 Jun 4.3 23:24:18 10° N 23:28:42 43° ENE 23:31:28 20° SE visible
29 Jun 5.4 01:03:01 10° NW 01:06:39 23° W 01:08:58 16° SW visible
29 Jun 5.9 22:10:28 10° NE 22:12:14 12° ENE 22:14:00 10° E visible
29 Jun 3.6 23:46:38 10° N 23:51:15 83° E 23:53:50 26° SSE visible
30 Jun 6.0 01:26:49 10° NW 01:28:44 13° W 01:30:40 10° WSW visible
30 Jun 5.4 22:31:38 10° NNE 22:35:08 21° ENE 22:38:36 10° ESE visible
01 Jul 4.2 00:09:12 10° NNW 00:13:40 51° W 00:16:12 24° SSW visible
01 Jul 4.5 22:53:35 10° N 22:57:52 37° ENE 23:01:05 16° SE visible
02 Jul 5.2 00:32:05 10° NNW 00:35:56 27° W 00:38:34 16° SW visible
02 Jul 3.7 23:15:52 10° N 23:20:28 70° ENE 23:23:29 21° SSE visible
03 Jul 6.0 00:55:31 10° NW 00:58:04 15° W 01:00:37 10° WSW visible
03 Jul 5.5 22:01:05 10° NNE 22:04:16 18° ENE 22:07:24 10° ESE visible
03 Jul 4.0 23:38:22 10° NNW 23:42:55 61° W 23:45:53 21° S visible
